TimeCST,TemperatureF,Dew PointF,Humidity,Sea Level PressureIn,VisibilityMPH,Wind Direction,Wind SpeedMPH,Gust SpeedMPH,PrecipitationIn,Events,Conditions,WindDirDegrees,DateUTC
12:53 AM,7.0,1.9,80,30.12,10.0,Variable,5.8,-,N/A,,Clear,0,2014-02-16 06:53:00
1:53 AM,5.0,1.0,84,30.12,10.0,Variable,3.5,-,N/A,,Partly Cloudy,0,2014-02-16 07:53:00
2:53 AM,3.9,-0.0,84,30.13,10.0,Calm,Calm,-,N/A,,Clear,0,2014-02-16 08:53:00
3:53 AM,-0.0,-4.0,83,30.14,10.0,Calm,Calm,-,N/A,,Clear,0,2014-02-16 09:53:00
4:53 AM,-9.0,-14.1,79,30.19,10.0,Calm,Calm,-,N/A,,Clear,0,2014-02-16 10:53:00
5:53 AM,-15.0,-18.9,82,30.24,10.0,Calm,Calm,-,N/A,,Clear,0,2014-02-16 11:53:00
6:43 AM,-15.0,-20.0,78,30.17,10.0,Calm,Calm,-,N/A,,Mostly Cloudy,0,2014-02-16 12:43:00
6:53 AM,-16.1,-20.0,82,30.28,10.0,Calm,Calm,-,N/A,,Overcast,0,2014-02-16 12:53:00
7:30 AM,-13.0,-18.0,78,30.17,10.0,Calm,Calm,-,N/A,,Scattered Clouds,0,2014-02-16 13:30:00
7:53 AM,-11.0,-15.0,83,30.27,9.0,Calm,Calm,-,N/A,,Scattered Clouds,0,2014-02-16 13:53:00
8:53 AM,-4.0,-7.1,87,30.28,10.0,Calm,Calm,-,N/A,,Partly Cloudy,0,2014-02-16 14:53:00
9:53 AM,9.0,1.0,70,30.30,10.0,NE,8.1,-,N/A,,Clear,50,2014-02-16 15:53:00
10:53 AM,10.9,1.9,67,30.29,10.0,ESE,6.9,-,N/A,,Clear,120,2014-02-16 16:53:00
11:53 AM,12.9,3.0,65,30.29,10.0,East,5.8,-,0.00,,Clear,90,2014-02-16 17:53:00
12:53 PM,17.1,5.0,59,30.26,10.0,ENE,6.9,-,N/A,,Clear,70,2014-02-16 18:53:00
1:53 PM,18.0,3.9,54,30.24,10.0,Variable,6.9,-,N/A,,Clear,0,2014-02-16 19:53:00
2:53 PM,19.0,3.9,52,30.22,10.0,East,8.1,-,N/A,,Clear,90,2014-02-16 20:53:00
3:53 PM,19.0,3.9,52,30.22,10.0,East,5.8,-,N/A,,Clear,90,2014-02-16 21:53:00
4:53 PM,19.0,3.9,52,30.22,10.0,East,6.9,-,N/A,,Clear,90,2014-02-16 22:53:00
5:53 PM,14.0,1.9,59,30.23,10.0,ESE,3.5,-,N/A,,Clear,120,2014-02-16 23:53:00
6:53 PM,12.0,3.0,67,30.23,10.0,Calm,Calm,-,N/A,,Clear,0,2014-02-17 00:53:00
7:53 PM,16.0,3.9,59,30.22,10.0,SSE,6.9,-,N/A,,Clear,160,2014-02-17 01:53:00
8:53 PM,17.1,3.9,56,30.20,10.0,SSE,8.1,-,N/A,,Clear,150,2014-02-17 02:53:00
9:53 PM,16.0,5.0,62,30.16,10.0,SSE,10.4,-,N/A,,Scattered Clouds,150,2014-02-17 03:53:00
10:53 PM,17.1,6.1,62,30.15,10.0,SSE,10.4,-,N/A,,Overcast,150,2014-02-17 04:53:00
11:53 PM,17.1,6.1,62,30.14,10.0,SSE,13.8,-,N/A,,Overcast,160,2014-02-17 05:53:00